SCP
0 0 0 0 0 0 0 0 1 2 3 4 5 6 6 7 9 12 14 12 9 8 7 7 8 9 9 10 9 8 6 5 4 4 3 4 4 6 8 9 12 14 15 16
0 0 0 0 0 1 1 1 1 2 4 5 7 8 8 8 9 11 13 12 11 10 10 10 11 12 13 12 11 10 8 6 5 5 4 4 4 5 6 8 10 13 14 15
0 0 0 0 1 1 2 2 2 3 4 7 10 12 11 10 10 11 13 15 18 18 16 15 16 17 18 17 15 12 10 7 7 6 6 5 5 4 5 6 8 11 12 13
0 0 0 1 1 2 3 3 3 4 5 8 13 15 14 12 12 13 15 19 22 22 19 21 23 24 23 22 19 15 11 9 8 8 8 6 5 4 4 5 6 8 8 8
0 0 0 1 1 2 3 3 4 4 6 10 14 17 15 13 14 16 18 18 18 17 19 24 29 29 27 25 21 17 12 10 9 9 8 7 6 5 4 4 5 5 5 4
0 0 0 1 1 2 3 3 4 5 7 9 13 15 15 14 16 19 20 17 13 12 16 25 31 31 28 24 19 15 12 11 10 10 9 8 8 7 6 5 4 3 2 1
1 0 0 1 1 2 2 3 4 6 8 11 14 16 18 18 19 21 22 19 14 11 15 22 27 28 25 20 16 13 12 12 12 12 11 11 10 9 7 6 5 3 2 1
1 1 1 1 2 2 2 3 5 7 11 16 19 22 23 22 21 21 21 19 15 12 14 17 20 21 18 15 15 16 16 15 15 16 15 14 13 10 9 8 6 4 2 2
2 2 2 2 2 2 3 4 5 8 13 18 21 22 22 22 21 19 19 17 14 14 14 13 14 14 13 12 14 18 19 18 19 20 19 16 13 10 9 7 6 4 3 3
2 3 3 3 3 3 4 5 7 10 15 17 18 18 19 19 18 18 18 16 14 14 13 12 10 10 10 10 11 13 15 17 21 21 18 14 12 10 8 6 5 4 3 3
2 3 3 3 4 4 5 7 10 14 17 17 15 16 18 17 14 15 15 14 13 13 12 10 8 7 7 7 8 9 11 15 19 18 14 11 10 8 6 4 4 3 3 3
1 2 2 2 3 4 7 10 14 16 16 14 12 12 13 12 10 10 11 12 13 13 11 9 7 6 5 6 7 9 10 13 14 12 10 9 8 6 4 3 2 2 2 2
1 1 1 1 2 4 7 11 14 13 11 9 7 6 8 8 7 6 8 10 12 13 12 10 8 6 6 6 7 8 9 8 8 8 8 7 6 4 3 2 2 1 1 1
0 1 1 1 1 2 6 9 10 8 6 4 3 3 6 8 7 7 8 11 13 14 13 10 8 7 6 5 5 6 6 6 6 7 7 7 5 4 3 3 2 2 1 1
0 0 1 1 1 2 3 4 4 3 2 2 1 2 4 8 9 9 10 13 15 15 12 9 7 7 6 4 3 4 5 5 5 6 7 6 5 4 3 2 2 2 1 1
0 0 1 1 1 1 1 1 1 1 1 1 1 1 2 6 8 9 11 14 15 14 11 7 6 7 7 5 4 3 4 5 5 5 6 5 5 4 3 2 2 1 1 0
1 1 1 1 1 1 1 1 1 1 1 1 1 1 2 4 6 8 10 13 13 11 8 5 4 5 6 6 4 3 2 3 4 4 4 4 4 3 3 2 1 0 0 0
0 1 1 1 0 0 1 1 1 0 0 1 1 1 3 4 6 7 9 10 9 7 5 3 3 5 6 6 5 2 2 2 3 3 3 3 3 2 2 1 1 0 0 0
0 0 1 0 0 0 0 0 0 0 0 0 1 1 2 3 4 5 5 6 5 4 3 3 4 5 6 6 4 2 1 2 2 2 2 2 1 1 1 1 1 1 0 0
0 0 0 0 0 0 0 0 0 0 0 0 0 1 1 2 2 2 3 3 4 4 4 4 4 5 6 5 3 1 1 1 1 1 1 1 1 0 0 0 0 0 0 0
0 0 0 0 0 0 0 0 0 0 0 0 0 0 0 1 1 1 1 1 2 3 3 4 4 5 5 3 1 1 1 1 1 0 0 0 0 0 0 0 0 0 0 0
0 0 0 0 0 0 0 0 0 0 0 0 0 0 0 0 0 0 0 0 1 1 2 3 3 4 4 2 1 1 1 1 0 0 0 0 0 0 0 0 0 0 0 0
0 0 0 0 0 0 0 0 0 0 0 0 0 0 0 0 0 0 0 0 0 1 2 3 2 2 2 1 1 1 1 0 0 0 0 0 0 0 0 0 0 0 0 0
0 0 0 0 0 0 0 0 0 0 0 0 0 0 0 0 0 0 0 0 0 1 2 2 1 1 0 0 1 1 1 1 0 0 0 0 0 0 0 0 0 0 0 0
0 0 0 0 0 0 0 0 0 0 0 0 0 0 0 0 0 0 0 0 0 1 1 1 0 0 0 0 0 1 1 1 1 0 0 0 0 0 0 0 0 0 0 0
0 0 0 0 0 0 0 0 0 0 0 0 0 0 0 0 0 0 0 0 1 1 1 1 0 0 0 0 0 0 0 0 0 0 0 0 0 0 0 0 0 0 0 0
0 0 0 0 0 0 0 0 0 0 0 0 0 0 0 0 0 0 0 1 1 1 1 0 0 0 0 0 0 0 0 0 0 0 0 0 0 0 0 0 0 0 0 0
Wind_Speed
2 4 2 3 5 4 1 5 7 7 7 7 5 6 6 6 8 9 8 8 9 9 7 7 7 7 8 9 8 8 9 9 8 7 6 6 5 5 4 4 5 4 3 3
5 5 6 5 5 4 3 2 2 2 2 4 4 4 5 5 8 8 8 8 7 7 6 6 7 7 7 8 8 9 9 9 7 7 7 6 6 5 4 4 4 4 4 3
3 6 5 5 3 1 2 2 3 3 4 1 5 6 7 7 7 6 6 6 6 5 5 5 5 6 7 7 7 9 8 8 7 8 7 6 6 5 5 4 3 3 3 4
0 4 4 8 3 1 3 4 2 2 1 3 5 4 4 5 6 5 5 4 5 4 4 3 2 3 4 4 6 7 8 8 7 8 7 6 6 6 5 4 4 3 3 3
2 2 6 7 4 2 2 5 4 3 3 4 4 7 5 3 4 5 4 3 3 4 5 5 3 3 4 4 4 5 6 6 7 8 8 7 7 6 5 4 4 3 4 4
3 3 6 6 6 4 4 2 4 2 4 2 4 4 1 1 3 4 4 3 3 3 4 4 3 3 4 3 4 5 5 5 6 7 8 8 7 6 4 4 4 4 4 4
5 5 7 5 6 5 2 5 3 1 3 3 2 4 4 2 3 4 4 4 4 4 4 2 2 4 5 4 4 4 4 4 4 5 6 7 5 4 4 4 4 4 4 3
3 3 7 6 5 2 3 2 1 1 2 3 4 4 5 4 4 4 3 4 5 4 3 2 3 4 3 2 2 2 3 4 4 5 5 5 6 5 5 5 5 4 4 3
4 5 4 2 2 1 2 2 2 2 3 6 5 5 5 4 3 3 3 3 4 5 3 3 3 4 3 0 1 3 3 2 3 3 4 5 6 6 5 5 4 4 4 3
2 2 3 3 4 4 4 4 4 3 3 5 5 4 3 3 3 3 3 3 3 4 4 2 2 2 3 1 1 3 3 2 3 3 3 3 3 4 4 5 5 4 5 4
1 3 4 5 4 4 5 5 6 5 4 3 4 3 2 2 3 3 3 2 3 3 3 2 2 2 2 1 1 2 3 2 2 3 3 3 3 2 3 3 5 5 4 4
4 5 2 3 3 2 4 4 4 4 4 3 3 3 2 1 2 3 3 3 3 3 3 2 2 2 2 1 2 3 2 2 1 2 2 3 4 2 2 1 2 4 5 4
4 4 3 3 1 2 2 2 3 3 3 1 1 2 2 1 0 2 3 3 3 3 3 2 3 2 2 2 2 3 2 2 1 1 2 3 4 4 3 1 3 2 0 3
2 0 1 1 1 1 2 2 3 3 2 1 2 2 2 2 1 1 2 2 2 3 2 2 2 1 1 1 3 2 2 1 2 1 2 3 4 4 4 4 2 1 2 2
3 1 2 1 1 1 1 2 4 3 3 3 2 2 2 1 1 0 0 1 2 2 1 2 2 1 1 1 2 1 1 1 1 1 1 2 3 3 3 3 3 2 2 2
2 1 1 1 0 1 0 1 2 1 1 2 1 0 0 0 0 1 1 1 2 2 1 1 1 1 1 1 1 1 1 1 1 1 1 2 2 3 3 3 3 3 2 2
1 1 1 1 1 1 1 1 1 1 1 2 1 2 2 1 1 1 1 1 2 2 2 1 1 0 1 2 2 1 0 1 3 2 2 2 2 3 3 3 3 2 2 2
1 1 2 2 1 1 2 1 0 0 1 1 1 2 3 2 2 1 1 2 2 2 1 0 1 1 1 1 1 1 2 2 2 2 2 2 2 3 3 3 3 3 2 2
1 1 1 1 1 0 0 1 1 1 1 1 2 2 3 3 2 2 2 2 2 1 2 2 1 2 1 1 2 2 2 3 2 2 3 3 3 3 3 3 3 2 3 3
3 2 2 2 2 2 1 1 1 2 1 1 2 2 2 2 2 2 3 2 1 1 1 1 1 1 0 1 2 2 2 3 3 2 2 2 3 3 2 3 3 3 2 2
3 3 3 2 2 2 1 1 1 0 1 1 2 2 2 1 1 2 2 1 2 1 1 2 1 0 0 1 2 2 3 3 3 3 3 3 3 3 3 3 3 3 3 3
2 2 2 2 2 2 2 1 1 1 2 2 2 2 2 1 1 2 1 0 1 1 1 1 1 1 2 3 2 3 3 4 3 3 3 3 3 4 4 4 4 4 3 3
2 2 2 2 1 1 2 2 2 2 2 2 2 1 1 0 1 1 0 1 0 2 2 2 3 5 5 3 3 4 4 4 4 4 4 4 4 4 4 4 4 4 4 4
2 2 2 1 2 2 2 2 2 2 3 2 2 2 2 1 1 1 0 1 2 3 2 3 6 6 6 4 4 4 4 4 4 4 4 4 4 4 4 4 4 4 4 5
2 2 2 2 2 1 1 2 3 3 3 2 3 3 2 2 2 1 1 2 4 4 3 5 7 7 5 4 5 5 5 5 5 5 5 5 5 5 5 5 5 4 4 4
1 2 2 2 1 1 1 2 2 2 2 2 2 2 2 3 3 3 3 4 6 6 4 4 4 5 5 6 6 6 6 6 6 6 6 5 6 5 5 5 6 5 5 5
2 2 2 3 3 2 2 2 2 2 2 2 2 2 3 3 3 4 4 4 4 4 4 4 5 5 6 6 6 6 6 6 6 5 5 5 5 5 5 6 5 4 4 4
Wind_Direction
245 261 288 289 304 306 229 190 189 213 199 220 200 176 168 159 146 146 167 171 172 175 183 187 181 177 177 179 179 177 177 183 189 186 181 177 177 177 172 168 169 166 156 154
349 344 347 326 315 313 299 256 205 155 239 234 174 123 121 132 135 143 157 162 164 169 172 180 183 182 179 178 179 175 180 187 183 175 174 174 172 167 163 163 161 155 160 160
318 325 3 303 290 326 336 318 164 183 234 217 116 128 150 151 137 143 154 153 149 155 164 178 184 176 184 184 175 174 180 183 179 175 174 173 171 162 166 166 157 155 163 159
352 16 252 249 277 69 58 357 58 117 157 133 141 140 120 128 133 139 152 145 145 147 146 152 160 165 171 171 169 173 175 177 178 176 175 169 164 167 171 166 162 163 168 167
131 226 276 297 318 358 70 346 358 87 87 82 99 82 57 59 120 132 129 134 152 147 135 127 142 163 145 151 158 165 177 181 181 176 170 168 171 176 173 161 159 155 155 153
157 195 238 258 302 319 90 323 326 91 120 118 92 100 202 233 109 94 88 99 115 123 113 124 145 142 137 156 162 176 185 185 179 174 169 168 172 171 164 157 159 155 152 154
184 214 255 278 316 7 115 230 291 127 138 144 158 178 169 129 92 92 90 92 94 104 109 141 153 128 135 157 183 185 173 169 163 165 167 162 160 161 158 155 152 155 153 153
165 201 254 317 13 57 233 268 343 47 96 102 105 98 97 94 94 101 95 85 93 91 72 68 95 105 120 150 184 148 143 151 156 159 164 159 157 161 158 157 157 163 159 162
190 211 253 335 105 202 124 69 23 38 82 98 98 100 92 85 90 95 89 79 85 99 86 67 86 113 118 119 122 121 123 147 155 159 162 160 161 162 158 160 167 175 174 183
8 315 336 10 30 31 59 68 46 51 59 83 90 92 94 94 94 96 87 83 76 79 82 71 70 95 126 168 143 126 139 149 143 142 144 143 148 157 164 171 176 180 189 192
302 292 351 9 15 30 46 49 46 42 48 65 72 66 81 115 117 116 104 97 98 101 103 93 71 70 76 104 128 122 120 122 137 154 154 151 147 155 175 190 194 186 192 191
238 246 208 265 286 29 61 53 50 53 45 42 73 49 23 95 146 139 129 127 118 107 102 88 76 65 48 63 118 119 118 135 154 168 169 162 152 123 57 147 168 185 190 188
221 229 202 232 286 64 85 84 74 67 70 14 51 68 29 345 209 138 135 139 139 136 130 115 98 73 45 63 96 117 136 148 130 152 168 172 167 161 158 61 54 46 165 182
264 235 281 281 289 24 62 69 59 48 43 73 74 52 33 353 339 123 149 164 155 142 135 125 107 89 71 88 94 100 111 127 145 156 180 181 177 174 168 164 153 48 36 96
294 272 234 244 7 12 48 87 72 37 23 16 62 71 50 5 339 50 142 114 104 99 109 108 95 42 22 88 100 111 135 160 158 157 178 176 167 154 145 143 136 129 98 69
269 321 10 28 230 268 251 104 103 74 350 320 356 103 126 124 323 62 73 100 117 127 181 123 101 341 358 84 98 89 93 150 144 150 137 142 140 130 128 129 130 134 134 139
94 1 11 324 321 325 267 212 190 169 273 266 229 173 127 90 62 71 63 77 133 146 155 134 136 88 84 91 102 100 107 128 123 124 123 118 117 126 128 129 134 134 135 144
175 218 219 218 231 325 328 345 340 220 293 345 87 96 88 89 87 66 65 66 81 73 42 66 108 96 86 91 109 140 145 146 143 137 125 115 115 118 119 123 128 124 109 97
51 40 3 337 308 342 17 347 317 22 43 65 94 99 107 117 111 91 82 72 66 34 315 338 53 84 70 63 87 119 130 130 122 116 116 115 110 110 115 119 121 125 128 123
3 11 10 6 12 25 31 16 29 37 15 38 76 78 83 87 97 97 85 67 331 272 280 3 42 46 38 78 94 115 123 124 121 119 114 114 116 115 117 121 122 120 119 119
346 358 1 6 7 1 17 44 50 356 332 80 99 101 98 71 80 92 91 41 315 324 59 62 61 33 105 94 93 100 103 101 101 103 108 113 114 111 109 111 112 111 109 107
345 350 350 358 10 359 357 23 49 41 42 59 68 78 80 62 56 69 81 209 297 22 67 52 46 70 94 98 95 98 96 95 95 93 92 98 103 104 103 102 101 99 97 96
342 348 350 353 5 17 15 27 44 55 57 55 60 67 90 102 101 107 47 322 30 62 65 57 65 79 89 88 88 94 92 88 87 89 92 94 94 96 98 96 94 97 98 94
348 353 354 13 55 61 51 37 45 61 69 58 53 62 78 79 53 41 113 75 79 91 79 75 76 76 81 83 88 90 89 88 86 85 86 87 86 85 86 90 91 89 89 88
360 7 26 50 59 61 77 84 72 59 63 59 48 45 44 64 95 97 88 84 90 94 85 77 78 78 77 78 79 81 83 86 90 90 88 88 87 87 87 88 89 86 85 84
27 35 41 55 69 77 74 87 84 64 62 61 47 48 52 52 60 64 74 81 83 86 83 78 79 78 76 76 76 74 74 78 79 78 81 84 84 85 87 85 83 83 83 83
48 45 47 43 36 41 54 68 80 70 68 82 70 56 65 68 64 63 69 71 71 71 72 73 76 79 81 80 78 73 70 70 73 76 79 81 82 84 84 84 85 85 86 87